RH
22 20 23 34 43 74 94 67 79 46 43 39 44 49 56 45 45 79 65 60 53 50 34 32 32 33 34 32 32 34 31 28 26 24 25 25 26 31 36 38 39 40 40 42 44 45 45 44 43
22 23 25 31 37 57 79 61 57 40 32 36 36 48 51 48 45 45 47 52 48 35 26 27 30 31 31 29 28 26 23 22 24 28 33 36 37 37 38 38 37 36 34 33 32 31 32 33 33
21 21 23 28 36 63 71 64 49 40 33 43 43 43 52 44 45 49 49 43 37 32 23 23 26 26 24 23 22 22 25 31 35 35 33 34 35 35 36 35 32 32 31 30 29 28 27 27 26
22 21 22 23 29 55 64 66 48 41 35 41 49 47 36 43 49 45 44 40 34 31 24 25 25 24 25 25 27 32 37 34 33 34 35 35 34 34 33 32 32 31 30 30 30 30 30 30 28
21 21 27 28 29 40 46 58 52 36 40 39 49 45 41 41 41 41 38 36 42 34 25 26 27 26 27 31 35 34 35 37 36 35 34 34 34 33 33 32 31 31 30 30 29 28 30 30 31
22 21 24 28 42 45 46 52 42 45 43 37 39 38 39 40 38 35 34 42 44 35 29 26 27 29 33 33 31 34 36 36 35 35 36 36 33 31 29 28 27 26 24 23 23 22 22 24 26
21 22 24 29 36 34 35 41 44 43 39 50 45 43 34 40 39 38 39 47 41 36 30 28 29 30 30 31 33 36 35 36 36 37 36 33 29 26 25 24 25 26 26 26 25 21 18 16 17
20 22 25 27 28 36 38 41 48 37 50 39 60 44 37 34 37 37 40 44 44 37 34 35 28 28 28 31 35 36 37 39 39 39 34 32 32 31 33 32 31 31 31 29 25 17 12 11 11
19 20 21 23 26 34 38 45 49 35 40 40 45 38 28 29 30 36 41 42 42 40 38 38 35 38 36 34 35 37 41 42 42 40 36 36 34 31 33 36 36 38 34 30 20 13 12 13 14
17 18 18 25 29 32 34 35 54 41 37 49 46 43 29 28 32 36 36 37 43 49 48 43 38 39 38 40 40 41 43 44 43 39 36 33 38 39 41 40 36 35 28 21 14 14 15 15 14
14 16 19 26 27 28 32 34 50 50 48 66 58 41 27 28 34 36 37 40 42 51 55 49 42 42 45 47 46 46 44 46 43 41 37 40 43 39 38 38 37 30 23 14 14 17 15 14 16
11 12 17 24 27 29 27 36 35 43 46 53 68 51 29 31 35 36 37 38 42 53 49 43 40 43 46 48 51 47 43 48 42 41 39 42 43 41 42 38 33 23 15 15 15 16 16 21 23
9 12 14 21 27 27 25 29 38 35 45 60 73 60 36 32 35 37 39 40 44 49 44 42 38 45 50 52 52 50 47 50 47 44 43 47 44 38 37 33 24 16 15 15 17 17 23 24 29
9 10 12 17 23 25 21 28 37 33 48 58 47 65 43 37 39 38 40 45 47 46 45 47 52 51 53 55 54 54 55 57 53 45 51 45 36 31 32 23 16 15 17 18 22 23 24 25 27
9 9 11 13 19 20 21 24 32 32 32 50 66 59 52 42 44 45 44 47 50 56 60 57 59 56 60 66 61 57 60 62 53 53 48 38 30 27 22 18 16 15 18 20 21 24 24 25 26
8 9 10 11 15 18 20 22 27 31 32 52 58 61 54 59 45 51 50 51 59 62 58 63 68 74 77 78 76 70 64 58 54 50 40 33 27 20 18 17 13 15 20 19 19 22 25 25 28
11 10 12 13 15 17 20 20 24 31 32 39 58 59 54 51 55 48 52 53 56 58 61 66 71 74 73 83 80 74 61 57 51 49 38 30 25 15 18 17 14 16 18 16 18 21 21 25 32
15 15 13 13 12 16 19 23 22 22 24 34 49 57 47 69 56 48 48 52 60 57 62 64 66 70 66 78 80 67 56 55 51 43 35 27 21 14 17 17 16 16 13 14 16 24 25 25 24
17 18 17 12 12 19 21 28 23 23 32 31 34 33 59 51 56 61 45 53 60 59 58 62 62 67 65 61 62 59 58 55 49 40 31 23 16 18 17 17 16 19 16 10 12 19 23 25 23
14 16 17 15 18 19 22 27 22 26 34 39 33 30 57 57 48 52 51 51 53 57 58 61 59 66 69 59 59 59 58 52 42 34 24 19 18 18 17 17 15 17 17 12 11 14 21 25 26
11 12 13 14 16 19 18 22 32 32 31 37 33 30 44 58 54 45 44 42 49 56 62 56 57 66 70 60 59 57 51 46 36 30 24 19 19 19 18 15 16 17 16 16 15 15 17 22 27
16 18 16 14 17 20 21 25 23 29 32 38 37 31 28 45 52 46 41 51 52 61 60 56 61 68 66 61 59 49 49 44 36 28 24 20 20 19 19 18 17 18 18 16 17 18 18 22 23
19 28 25 21 19 16 17 19 21 24 28 29 29 30 33 32 50 50 46 59 61 59 58 57 61 59 63 56 57 47 45 38 33 27 23 21 18 20 20 20 21 22 24 21 20 21 18 19 25
21 24 22 22 20 23 19 20 18 21 24 27 33 38 39 39 39 47 44 56 58 57 56 56 55 59 62 57 55 42 38 34 29 25 22 21 22 24 22 26 25 21 30 25 23 24 20 19 26
25 24 27 30 30 27 30 24 22 20 19 25 33 34 33 37 48 80 50 57 53 53 56 55 58 63 68 58 48 38 36 31 28 25 24 25 27 27 28 21 24 26 27 27 29 29 31 22 23
37 36 34 33 33 37 32 32 27 24 24 23 20 25 30 36 35 39 60 57 54 55 57 59 61 64 66 61 42 40 36 28 27 26 26 24 29 28 28 23 25 24 25 30 31 31 30 26 29
29 34 35 35 27 28 26 31 30 31 29 29 24 25 28 39 47 41 59 45 55 55 57 59 58 62 68 55 41 41 35 29 28 28 25 24 26 25 27 27 29 25 22 29 32 32 29 31 36
23 26 36 36 42 39 26 25 41 35 36 35 33 43 50 51 61 65 97 73 66 57 57 58 58 62 62 52 42 42 38 34 31 29 23 25 21 27 30 28 28 26 20 28 33 40 35 35 36
41 47 57 41 41 52 49 40 41 45 50 49 53 57 60 55 49 42 59 65 67 61 56 57 64 64 56 49 45 45 42 43 36 28 28 30 23 22 26 29 29 28 24 26 30 36 38 37 41
27 28 27 27 39 56 64 52 60 48 50 53 54 51 56 58 53 39 32 52 57 61 62 61 61 61 56 49 48 49 47 49 41 34 34 30 24 24 30 32 29 28 25 27 32 36 44 37 40